Tracking 29892 objects as of 21-Nov-2024
HD Live streaming from Space Station
objects crossing your sky now

ONEWEB-0178

Track ONEWEB-0178 now!
10-day predictions
ONEWEB-0178 is classified as:


NORAD ID: 48075
Int'l Code: 2021-025AK
Perigee: 1,215.8 km
Apogee: 1,218.0 km
Inclination: 87.9 °
Period: 109.6 minutes
Semi major axis: 7587 km
RCS: Unknown
Launch date: March 25, 2021
Source: United States (US)
Launch site: VOSTOCHNY COSMODROME (VOSTO)
Your satellite tracking list
CZ-6A DEB
Track 1 satellite(s)




NASA's NSSDC Master Catalog

Two Line Element Set (TLE):
1 48075U 21025AK  24325.26940184 -.00000137  00000-0 -40971-3 0  9991
2 48075  87.8928  74.4018 0001416 104.9023 255.2263 13.13468803178382
Source of the keplerian elements: AFSPC